Simultaneous Nadir Overpasses (SNOs) Predictions

Prediction of SNOs between GOES-17 and AQUA Satellite Orbit:

Table of predicted SNOs for the next 14.0 days since TLE Epoch: 1/31/2020
Index Date Time (GOES-17) GOES-17 Lat,Lon AQUA Lat,Lon Distance(km) Time Diff (sec)
1 02/01/2020 22:45:58 -0.04,-137.20 -0.18,-137.90 79.42 80
2 02/03/2020 22:36:27 -0.05,-137.19 0.45,-134.94 255.34 80
3 02/04/2020 10:57:42 0.05,-137.18 0.66,-140.10 330.97 80
4 02/06/2020 10:42:51 0.06,-137.16 0.03,-137.14 3.41 80
5 02/08/2020 10:30:39 0.06,-137.12 -0.54,-134.17 335.40 80
6 02/08/2020 22:52:03 -0.07,-137.11 -0.54,-139.37 256.30 80
7 02/10/2020 22:42:32 -0.07,-137.07 0.10,-136.41 75.91 80
8 02/12/2020 22:30:21 -0.07,-137.03 0.69,-133.44 407.57 80
9 02/13/2020 10:51:36 0.07,-137.02 0.38,-138.60 179.46 80




NCC Satellite Simultaneous Nadir Overpasses (SNOs) Prediction Service
